Volver al catálogo

STARLINK-32574

ActivoComunicacionesVLEO
NORAD 61954·PAYLOAD·🇺🇸 United States

Lanzado Nov 14, 2024 desde Vandenberg Space Force Base

Loading…

Próximos Pases (próximas 24 horas)

TLE

ActualizadoSource: CelesTrak SupGP

Época: Sep 15, 2026, 03:36 UTC

1 61954C 24209R   26258.15048611  .00057417  00000+0  16956-2 0  2581
2 61954  53.1589 332.9591 0001263  85.1333  22.5066 15.34377510    13

Sigue STARLINK-32574 en tiempo real con AllMySat

Download on the App Store